TimePDT,TemperatureF,Dew PointF,Humidity,Sea Level PressureIn,VisibilityMPH,Wind Direction,Wind SpeedMPH,Gust SpeedMPH,PrecipitationIn,Events,Conditions,WindDirDegrees,DateUTC
12:53 AM,55.0,48.0,77,30.15,10.0,Calm,Calm,-,N/A,,Clear,0,2013-06-21 07:53:00
1:10 AM,53.6,48.2,82,30.15,10.0,Calm,Calm,-,N/A,,Mostly Cloudy,0,2013-06-21 08:10:00
1:26 AM,53.6,48.2,82,30.15,10.0,Calm,Calm,-,N/A,,Scattered Clouds,0,2013-06-21 08:26:00
1:53 AM,53.1,46.9,80,30.15,10.0,Calm,Calm,-,N/A,,Scattered Clouds,0,2013-06-21 08:53:00
2:00 AM,53.6,48.2,82,30.14,10.0,Calm,Calm,-,N/A,,Mostly Cloudy,0,2013-06-21 09:00:00
2:53 AM,54.0,48.0,80,30.15,10.0,Calm,Calm,-,N/A,,Overcast,0,2013-06-21 09:53:00
3:24 AM,53.6,48.2,82,30.14,10.0,Calm,Calm,-,N/A,,Scattered Clouds,0,2013-06-21 10:24:00
3:53 AM,53.1,48.0,83,30.14,10.0,Calm,Calm,-,N/A,,Partly Cloudy,0,2013-06-21 10:53:00
4:53 AM,53.1,48.0,83,30.14,10.0,Calm,Calm,-,N/A,,Scattered Clouds,0,2013-06-21 11:53:00
5:01 AM,51.8,48.2,88,30.14,10.0,Calm,Calm,-,N/A,,Mostly Cloudy,0,2013-06-21 12:01:00
5:53 AM,53.1,48.0,83,30.15,10.0,NNW,3.5,-,N/A,,Overcast,340,2013-06-21 12:53:00
6:53 AM,54.0,48.9,83,30.16,10.0,Calm,Calm,-,N/A,,Overcast,0,2013-06-21 13:53:00
7:53 AM,55.0,48.0,77,30.17,10.0,Calm,Calm,-,N/A,,Mostly Cloudy,0,2013-06-21 14:53:00
8:53 AM,57.0,48.9,74,30.18,10.0,Calm,Calm,-,N/A,,Overcast,0,2013-06-21 15:53:00
9:53 AM,59.0,48.9,69,30.18,10.0,Calm,Calm,-,N/A,,Scattered Clouds,0,2013-06-21 16:53:00
10:53 AM,63.0,48.9,60,30.17,10.0,North,5.8,-,N/A,,Clear,10,2013-06-21 17:53:00
11:53 AM,66.0,48.9,54,30.16,10.0,Calm,Calm,-,N/A,,Partly Cloudy,0,2013-06-21 18:53:00
12:53 PM,68.0,48.9,50,30.14,10.0,Calm,Calm,-,N/A,,Clear,0,2013-06-21 19:53:00
1:53 PM,73.0,46.9,39,30.13,10.0,NNE,10.4,-,N/A,,Partly Cloudy,20,2013-06-21 20:53:00
2:53 PM,75.0,44.1,33,30.11,10.0,North,5.8,-,N/A,,Clear,350,2013-06-21 21:53:00
3:53 PM,75.9,44.1,32,30.10,10.0,North,9.2,-,N/A,,Partly Cloudy,360,2013-06-21 22:53:00
4:53 PM,75.9,45.0,33,30.08,10.0,NNE,6.9,16.1,N/A,,Clear,20,2013-06-21 23:53:00
5:53 PM,75.9,43.0,31,30.08,10.0,NNE,10.4,17.3,N/A,,Clear,20,2013-06-22 00:53:00
6:53 PM,77.0,43.0,30,30.07,10.0,NNW,5.8,-,N/A,,Clear,340,2013-06-22 01:53:00
7:53 PM,75.0,44.1,33,30.07,10.0,NNW,8.1,-,N/A,,Clear,340,2013-06-22 02:53:00
8:53 PM,72.0,45.0,38,30.08,10.0,North,6.9,-,N/A,,Clear,10,2013-06-22 03:53:00
9:53 PM,68.0,48.0,49,30.09,10.0,NNE,5.8,-,N/A,,Clear,20,2013-06-22 04:53:00
10:53 PM,64.0,48.9,58,30.10,10.0,NNE,3.5,-,N/A,,Clear,30,2013-06-22 05:53:00
11:53 PM,61.0,50.0,67,30.10,10.0,Calm,Calm,-,N/A,,Clear,0,2013-06-22 06:53:00